sat.trackr.live / text

‹ back to catalog

STARLINK-36156

NORAD 67006 · 2025-293D

PAYLOAD ACTIVE UNKNOWN

§ Identity

Operator
Country
US
Launch date
2025-12-10
Launch site
AFWTR
Launch vehicle
Mass (kg)
RCS (m²)

Purposes: comms

External: N2YO · Heavens-Above · Gunter

§ Orbital elements

Epoch: 2026-09-20T11:48:47.050272Z

Period
96.11 min
Inclination
70.0015°
Eccentricity
0.0003527
Mean motion
14.98347319 rev/d
Perigee alt
569.6 km
Apogee alt
574.5 km
Semi-major
6,950.1 km
B*
2.7830e-4
RAAN
323.4412°
Arg perigee
268.8157°
Mean anomaly
91.2598°
Rev number
4,406

§ Raw data

STARLINK-361561 67006U 25293D   26263.49221123  .00003231  00000+0  27830-3 0  99942 67006  70.0015 323.4412 0003527 268.8157  91.2598 14.98347319 44064

JSON: /api/v1/satellites/67006 · /tle

For live sub-satellite position, see the globe view (requires WebGL).

§ Visibility from observer

Set your observer location to see the next 7 days of passes ≥ 10°. The values pass through the URL so the page stays shareable.

No JS? Fill the form by hand. The geolocation button needs JavaScript.